Flag for French Polynesia Weather past 2 weeks in Taiohae, Marquesas Islands, French Polynesia

Now
77 °F

Mild.


Feels Like: 78 °F
Forecast: 77 / 82 °F
Wind: 2 mph from Northeast

Location: Atuona

Current Time: Jul 31, 2015 at 6:06:56 AM

Latest Report: Jul 31, 2015 at 4:30 AM


Visibility: N/A

Pressure: 29.80 "Hg

Humidity: 77%

Dew point: 69 °F

Location of TaiohaeLocation

Historic Weather in Taiohae — Graph

°F

Taiohae temperature yesterday

Maximum temperature yesterday: 84 °F (at 9:30 AM)
Minimum temperature yesterday: 72 °F (at 5:30 AM)
Average temperature yesterday: 79 °F

Past Weeks' High & Low Weather Summary

 TemperatureHumidityPressure
High86 °F (Jul 22, 9:30 AM)93% (Jul 25, 4:30 AM)30.02 "Hg (Jul 25, 4:30 AM)
Low71 °F (Jul 24, 6:30 AM)57% (Jul 20, 12:30 PM)29.79 "Hg (Jul 30, 3:30 PM)
Average78 °F77%29.90 "Hg
* Reported Jul 16 4:30 AM — Jul 31 4:30 AM, Taiohae, Weather by CustomWeather, © 2015

Note: Actual official high and low records may vary slightly from our data, if they occured in-between our weather recording intervals... More about our weather records

Advertising

Taiohae weather history for previous 24 hours

 ConditionsComfort  
Time TempWeatherWind HumidityBarometerVisibility
4:30 AM
Fri, Jul 31
77 °FMild.2 mph77%29.80 "HgN/A
3:30 AM78 °FWarm.7 mph77%29.79 "HgN/A
2:30 AM78 °FWarm.9 mph78%29.79 "HgN/A
1:30 AM78 °FWarm.6 mph77%29.81 "HgN/A
12:30 AM78 °FWarm.5 mph80%29.83 "HgN/A
11:30 PM
Thu, Jul 30
78 °FWarm.5 mph81%29.84 "HgN/A
10:30 PM77 °FWarm.2 mph82%29.84 "HgN/A
9:30 PM77 °FWarm.3 mph82%29.85 "HgN/A
8:30 PM76 °FMild.2 mph84%29.85 "HgN/A
7:30 PM77 °FMild.3 mph83%29.83 "HgN/A
6:30 PM77 °FWarm.3 mph80%29.82 "HgN/A
4:30 PM80 °FPassing clouds.10 mph75%29.79 "Hg31 mi
3:30 PM81 °FPassing clouds.12 mph71%29.79 "Hg31 mi
2:30 PM82 °FPassing clouds.10 mph71%29.80 "Hg31 mi
1:30 PM83 °FPassing clouds.9 mph71%29.82 "Hg31 mi
10:30 AM84 °FPassing clouds.13 mph69%29.90 "Hg31 mi
9:30 AM84 °FPassing clouds.10 mph68%29.90 "Hg31 mi
8:30 AM83 °FScattered clouds.1 mph69%29.91 "Hg31 mi
Weather by CustomWeather, © 2015

See weather overviewHow to use our weather pages